www.pogodaiklimat.ru

Погода и климат >> Архив погоды >> Индия >> Ambikapur


ПОГОДА в Ambikapur

  • Прогноз погоды в Ambikapur
  • Монитор погоды в Ambikapur
  • Климат города

АРХИВ ПОГОДЫ в Ambikapur

Время (UTC), дата Ветер
(напр.,м/с)
 
Видим.   Явления Облачность Т
(С)
Тd
(С)
f
(%)
Тe
(С)
Тes
(С)
Комфортность P
(гПа)
Po
(гПа)
Тmin
(С)
Tmax
(С)
R
(мм)
R24
(мм)
S
(см)
00 18.04 штиль 0 4000 м 3/0
[Ac trans]
+22.0 +16.6 71 +26 +26 душно 1008.8 940.8 0.2
03 18.04 штиль 0 4000 м ясно +28.2 +17.2 51 +32 +44 душно 1008.9 942.4 +20.5 0.2
06 18.04 З 1 4000 м ясно +36.4 +16.0 30 +38 +63 опасность
солнечного
удара
1006.8 942.1
09 18.04 С 1 4000 м 5/4 750 м
[Cu Sc Ac trans]
+36.4 +12.0 23 +36 +45 очень
жарко
1004.1 939.5
12 18.04 СЗ 1 4000 м ясно +34.2 +14.1 30 +35 +36 очень
жарко
1003.1 938.2 +37.5
15 18.04 штиль 0 4000 м ясно +28.6 +16.2 47 +32 +32 душно 1005.3 939.0
18 18.04 штиль 0 4000 м ясно +26.0 +15.9 54 +29 +29 душно 1006.7 939.7
21 18.04 штиль 0 4000 м ясно +23.4 +16.1 64 +28 +28 душно 1005.9 938.6
00 19.04 штиль 0 4000 м 3/3 750 м
[Sc]
+21.2 +15.4 69 +24 +24 комфорт 1007.1 939.1
03 19.04 штиль 0 4000 м ясно +28.4 +11.8 36 +29 +42 жарко 1007.0 940.7 +20.3
06 19.04 СЗ 1 4000 м ясно +34.8 +11.8 25 +35 +59 опасность
солнечного
удара
1005.9 940.9
09 19.04 З 2 4000 м 3/3 750 м
[Sc]
+37.6 +7.7 16 +35 +46 очень
жарко
1002.0 937.8
12 19.04 С 1 4000 м ясно +36.0 +4.3 14 +33 +34 жарко 1001.1 936.6 +38.1
15 19.04 штиль 0 4000 м ясно +30.2 +14.3 38 +32 +32 жарко 1003.6 937.9
18 19.04 штиль 0 4000 м ясно +28.0 +15.4 46 +31 +31 душно 1004.8 938.4
21 19.04 штиль 0 4000 м ясно +26.2 +16.2 54 +30 +30 душно 1004.1 937.4
00 20.04 штиль 0 4000 м ясно +24.4 +16.2 60 +28 +28 душно 1004.8 937.7
03 20.04 С 1 4000 м ясно +30.2 +12.6 34 +31 +42 жарко 1005.0 939.1 +21.8
06 20.04 ЮЗ 1 4000 м ясно +37.6 +10.5 20 +37 +61 опасность
солнечного
удара
1003.2 939.0
09 20.04 З 1 4000 м 1/1 750 м
[Sc]
+39.8 +8.5 15 +38 +52 опасность
солнечного
удара
1000.6 936.9
12 20.04 З 1 4000 м 3/3 750 м
[Sc]
+38.0 +9.6 18 +36 +37 очень
жарко
1000.0 935.9 +40.1
15 20.04 штиль 0 4000 м 3/3 750 м
[Sc]
+32.0 +16.0 38 +35 +35 очень
душно
1002.7 937.2
18 20.04 штиль 0 4000 м ясно +28.6 +15.0 44 +31 +31 жарко 1004.4 938.2
21 20.04 штиль 0 4000 м ясно +25.4 +14.8 52 +28 +28 жарко 1004.3 937.4
00 21.04 штиль 0 4000 м ясно +23.6 +14.5 57 +26 +26 жарко 1005.0 937.7
03 21.04 ЮЗ 1 4000 м ясно +29.6 +17.1 47 +33 +44 душно 1005.5 939.4 +22.5
06 21.04 СЗ 1 4000 м ясно +36.4 +9.9 20 +35 +60 опасность
солнечного
удара
1004.1 939.5
09 21.04 З 1 4000 м 3/3 900 м
[Cu hum]
+39.0 +7.8 15 +37 +48 очень
жарко
1001.2 937.2
12 21.04 З 1 4000 м 3/3 750 м
[Sc]
+37.0 +10.5 20 +36 +37 очень
жарко
1001.1 936.8 +39.3
18 21.04 С 2 4000 м 5/3 750 м
[Sc Ac trans]
+31.2 +14.5 36 +33 +33 жарко 1005.0 939.4
21 21.04 С 2 4000 м 3/0
[Ac trans]
+29.4 +13.7 38 +31 +31 жарко 1004.9 938.9
00 22.04 штиль 0 4000 м ясно +26.0 +13.6 46 +28 +28 жарко 1006.7 939.7
03 22.04 С 1 4000 м ясно +29.2 +11.6 34 +30 +41 жарко 1008.2 941.9 +24.2
06 22.04 С 1 4000 м ясно +36.0 +8.1 18 +34 +59 опасность
солнечного
удара
1006.3 941.4
09 22.04 Ю 2 4000 м ясно +37.2 +6.9 16 +35 +50 очень
жарко
1003.6 939.2
12 22.04 СЗ 1 4000 м 3/3 750 м
[Sc]
+36.8 +9.0 18 +35 +36 очень
жарко
1002.4 938.0 +38.2
15 22.04 штиль 0 4000 м ясно +31.2 +8.4 24 +30 +30 жарко 1005.6 940.0
18 22.04 штиль 0 4000 м ясно +30.4 +10.6 29 +30 +30 жарко 1006.9 941.0
21 22.04 штиль 0 4000 м ясно +28.6 +11.7 35 +29 +29 жарко 1006.2 939.9
00 23.04 штиль 0 4000 м ясно +25.4 +11.6 42 +27 +27 жарко 1007.2 940.2
03 23.04 СВ 1 4000 м 3/3 750 м
[Sc]
+29.4 +6.9 24 +28 +36 жарко 1009.5 943.1 +22.4
06 23.04 С 1 4000 м ясно +37.0 +5.8 15 +34 +59 опасность
солнечного
удара
1008.2 943.4
09 23.04 СЗ 1 4000 м 3/3 600 м
[Sc]
+37.4 +3.2 12 +34 +46 очень
жарко
1004.3 939.9
12 23.04 штиль 0 4000 м ясно +34.8 +5.7 16 +32 +33 жарко 1003.4 938.5 +37.5
15 23.04 штиль 0 4000 м ясно +30.6 +8.4 25 +30 +30 жарко 1006.6 940.7
18 23.04 штиль 0 4000 м ясно +29.4 +9.5 29 +29 +29 жарко 1007.5 941.2
21 23.04 штиль 0 4000 м ясно +27.2 +10.1 34 +28 +28 жарко 1007.2 940.6
00 24.04 штиль 0 4000 м ясно +25.0 +10.1 39 +26 +26 жарко 1008.4 940.9
03 24.04 В 1 2000 м мгла ясно +28.8 +6.3 24 +31 +42 жарко 1009.7 943.1 +21.3
06 24.04 В 1 4000 м ясно +35.2 +2.4 13 +32 +57 опасность
солнечного
удара
1007.3 942.4
09 24.04 С 1 4000 м ясно +37.2 +1.9 11 +34 +50 очень
жарко
1003.5 939.1
12 24.04 С 1 4000 м ясно +35.4 +3.6 14 +32 +34 жарко 1002.7 938.0 +37.7
15 24.04 штиль 0 4000 м ясно +30.0 +7.9 25 +29 +29 жарко 1005.4 939.5
18 24.04 штиль 0 4000 м ясно +26.8 +9.9 35 +27 +27 жарко 1006.6 939.8

 

Местоположение метеостанции Ambikapur (Chhattisgarh, Индия): широта 23.17 долгота 83.25 высота над уровнем моря 611 м.

В архиве по умолчанию представлена погода в Ambikapur за последнюю неделю. Архивные данные за месяц целиком и за предыдущие месяцы, начиная с января 2011 года, Вы можете получить, выбрав интересующий диапазон дат из раскрывающегося списка и нажав кнопку "Ввод!".


*Определитесь, кто Вы:
робот инопланетянин человек

Внимание! Время в таблицах - всемирное. Для получения местного времени необходимо прибавить поправку, которая в Ambikapur равна 5.5 ч.

Смотрите также архив погоды в соседних городах и на ближайших метеорологических станциях:

Погода в Daltonganj (Jharkhand, Индия) (129 км)
Погода в Sundargarh (Orissa, Индия) (142 км)
Погода в Pendra Road (Chhattisgarh, Индия) (145 км)
Погода в Bilaspur (Chhattisgarh, Индия) (163 км)
Погода в Jharsuguda (Orissa, Индия) (163 км)
Погода в Hirakud (Orissa, Индия) (194 км)
Погода в Raipur Airport (Chhattisgarh, Индия) (195 км)
Погода в Sidhi (Madhya Pradesh, Индия) (198 км)
Погода в Sambalpur (Orissa, Индия) (203 км)
Погода в Ranchi (Jharkhand, Индия) (212 км)

Пояснения к столбцам:

Ветер - указаны скорость ветра в м/с - средняя за 10 мин, порывы в срок и между сроками (в фигурных скобках) и направление, откуда дует ветер: С - северный, СВ - северо-восточный, В - восточный, ЮВ - юго-восточный, Ю - южный, ЮЗ - юго-западный, З - западный, СЗ - северо-западный.
Видимость - горизонтальная дальность видимости в метрах или километрах. При видимости от 1 до 10 км при отсутствии осадков обычно наблюдается дымка, при ухудшении видимости до 1 км и менее - туман. В сухую погоду видимость может ухудшаться дымом, пылью или мглою.
Явления - указаны атмосферные явления, наблюдавшиеся в срок или в последний час перед сроком; фигурными скобками обозначены явления, наблюдавшиеся между сроками (за 1-3 часа до срока); квадратными скобками обозначены град или гололедные отложения с указанием их диаметра в мм.
Облачность - указаны через наклонную черту общая и нижняя облачность в баллах и высота нижней границы облаков в метрах; квадратными скобками обозначены формы облаков: Ci - перистые, Cs - перисто-слоистые, Cc - перисто-кучевые, Ac - высококучевые, As - высокослоистые, Sc - слоисто-кучевые, Ns - слоисто-дождевые, Cu - кучевые, Cb - кучево-дождевые. Подробнее классификацию облаков см. в Атласе облаков (PDF).
T - Температура воздуха - температура, измеренная на высоте 2 м над землей.
Td - Температура точки росы - температура, при понижении до которой содержащийся в воздухе водяной пар достигнет насыщения.
f - Относительная влажность воздуха - влажноcть воздуха, измеренная на высоте 2 м над землей.
Te - Эффективная температура - температура, которую ощущает одетый по сезону человек в тени. Характеристика душности погоды. При расчете учитывается влияние влажности воздуха и скорости ветра на теплоощущения человека.
Tes - Эффективная температура на солнце - температура, которую ощущает человек, с поправкой на солнечный нагрев. Характеристика знойности погоды. Зависит от высоты солнца над горизонтом, облачности и скорости ветра. Ночью, в пасмурную погоду, а также при ветре 12 м/с и более поправка равна нулю.
P - Атмосферное давление - приведенное к уровню моря атмосферное давление.
Po - Атмосферное давление - измеренное на уровне метеостанции атмосферное давление.
Tmin - Минимальная температура - минимум температуры воздуха на высоте 2 м над землей.
Tmax - Максимальная температура - максимум температуры воздуха на высоте 2 м над землей.
R - Количество осадков - Количество выпавших осадков за период времени, мм. При наведении курсора мыши на число - период времени, за который выпало указанное количество осадков.
R24 - Количество осадков - Количество выпавших осадков за 24 часа, мм.
S - Снежный покров - Высота снежного покрова, см. При наведении курсора мыши на число - состояние снежного покрова и степень покрытия местности в баллах.